2024-149BR

Last updated on Mon Sep 16 2024 00:02:03 GMT+0000 (Coordinated Universal Time)

1 60531U 24149BR 24259.15015729 .00009705 00000+0 97048-3 0 9998 2 60531 97.7450 334.1121 0000837 82.0785 278.0529 14.91649744 4367
UTC large
Height (km)
Speed (km/s)
/
Latitude / Longitude
Inclination (degrees)
Orbital Period (minutes)
Azimuth
Elevation
Range (km)
Doppler Factor

Next 0 passes for location: London (51.5072 / 0.1276)

Sorry there are no passes over London.